[[{"header":{"parameterUnit":"m.s-1","parameterCategory":1,"la1":30.2991,"la2":30.254,"lo1":-89.0895,"lo2":-89.0444,"dx":0.0017,"dy":0.0017,"nx":28,"ny":28,"refTime":"2022-11-15T15:00:00:Z","depth":0,"parameterNumber":2,"parameterNumberName":"U-component_of_WINDS"},"data":[0,0,0,0,0,0,0,0,0,0,0,0,0,0,0,0,0,0,0,0,0,0,0,0,0,0,0,0,0,0,0,0,0,0,0,0,0,0,0,0,0,0,0,0,0,0,0,0,0,0,0,0,0,0,0,0,0,0,-1.0495,-1.0496,0,-1.0588,-1.0589,-1.059,-1.055,-1.0548,-1.0546,-1.0544,-1.0641,-1.0645,-1.065,0,0,0,0,0,0,0,0,0,0,0,0,0,-1.0286,-1.029,-1.0495,-1.0496,-1.0498,-1.0587,-1.0589,-1.059,-1.0551,-1.0548,-1.0545,-1.0543,-1.0639,-1.0645,-1.065,0,0,0,0,0,0,0,0,0,0,0,0,0,-1.0378,-1.0291,-1.0495,-1.0489,-1.0489,-1.0587,-1.0589,-1.059,-1.0551,-1.0548,-1.0545,-1.0542,-1.0637,-1.0644,-1.0651,-1.0762,0,0,-1.0673,-1.0676,0,0,0,0,0,0,0,0,-1.0372,-1.0385,-1.0489,-1.0489,-1.049,-1.0554,-1.055,-1.0648,-1.0552,-1.0528,-1.0544,-1.054,-1.0615,-1.0623,-1.0648,-1.0766,-1.077,-1.0673,-1.0677,-1.068,-1.0682,0,0,0,0,0,0,0,-1.0366,-1.0381,-1.0532,-1.049,-1.0491,-1.0482,-1.0491,-1.0569,-1.0589,-1.053,-1.0527,-1.0538,-1.0615,-1.0642,-1.065,-1.0772,-1.0673,-1.0679,-1.0683,-1.0686,-1.0984,-1.0987,0,0,0,0,0,0,-1.0359,-1.0376,-1.0529,-1.0535,-1.0422,-1.0488,-1.0499,-1.0537,-1.0588,-1.0593,-1.0541,-1.0536,-1.0631,-1.0642,-1.0653,-1.0786,-1.068,-1.0687,-1.0691,-1.098,-1.0985,-1.0989,0,0,0,0,0,0,-1.0355,-1.0374,-1.0525,-1.0455,-1.0473,-1.0495,-1.0539,-1.0541,-1.0568,-1.0597,-1.06,-1.0565,-1.0629,-1.0644,-1.0735,-1.0789,-1.069,-1.0696,-1.0976,-1.0982,-1.0987,-1.1053,0,0,0,0,0,0,-1.0349,-1.0372,-1.0414,-1.0456,-1.0477,-1.0605,-1.0542,-1.0545,-1.0579,-1.0574,-1.062,-1.0625,-1.0628,-1.0724,-1.0742,-1.0797,-1.0702,-1.0971,-1.0978,-1.0985,-1.1046,-1.106,-1.1072,0,0,0,0,0,-1.0342,-1.043,-1.0417,-1.0435,-1.053,-1.0608,-1.062,-1.0621,-1.0584,-1.0627,-1.0645,-1.0623,-1.078,-1.0734,-1.0753,-1.0812,-1.0968,-1.0976,-1.0984,-1.104,-1.1057,-1.1072,0,0,0,0,0,0,-1.0396,-1.0435,-1.0421,-1.0525,-1.0563,-1.0601,-1.0656,-1.064,-1.069,-1.0683,-1.0682,-1.0693,-1.0787,-1.0808,-1.0756,-1.092,-1.0868,-1.0881,-1.0904,-1.0921,-1.0933,-1.0927,-1.0708,0,0,0,0,0,-1.0419,-1.0479,-1.051,-1.0599,-1.0619,-1.0634,-1.0668,-1.0665,-1.0705,-1.0721,-1.0746,-1.0787,-1.0845,-1.0883,-1.0939,-1.1048,-1.1058,-1.1097,-1.111,-1.1121,-1.1132,-1.1192,-1.121,-1.1016,-1.1016,-1.1016,0,0,-1.0469,-1.0498,-1.0536,-1.061,-1.064,-1.0702,-1.0648,-1.0716,-1.0762,-1.0732,-1.082,-1.0839,-1.0884,-1.0984,-1.103,-1.1005,-1.1187,-1.1131,-1.114,-1.1146,-1.1202,-1.122,-1.1237,-1.1022,-1.1021,-1.102,0,0,-1.0593,-1.062,-1.0697,-1.0727,-1.0772,-1.0781,-1.0799,-1.0839,-1.0851,-1.0938,-1.0917,-1.0971,-1.1072,-1.1104,-1.1134,-1.1267,-1.1249,-1.1285,-1.1354,-1.1412,-1.1427,-1.1441,-1.1489,-1.1507,-1.1296,-1.1296,-1.1296,0,-1.065,-1.0742,-1.0739,-1.0809,-1.0842,-1.0815,-1.0894,-1.0923,-1.0984,-1.1008,-1.0978,-1.1102,-1.113,-1.1238,-1.1271,-1.1295,-1.1317,-1.1281,-1.1425,-1.1439,-1.1451,-1.1498,-1.1516,-1.13,-1.13,-1.1299,-1.1299,0,-1.0811,-1.0875,-1.0931,-1.099,-1.1029,-1.1103,-1.1111,-1.1151,-1.1144,-1.1156,-1.1245,-1.1277,-1.1338,-1.1363,-1.1358,-1.147,-1.1453,-1.1424,-1.1372,-1.1474,-1.1518,-1.1535,-1.1306,-1.1305,-1.1304,-1.1303,0,0,-1.0974,-1.1027,-1.1048,-1.1074,-1.112,-1.117,-1.1242,-1.13,-1.1335,-1.1377,-1.1438,-1.1522,-1.1495,-1.1529,-1.1526,-1.1577,-1.1681,-1.1541,-1.1542,-1.1568,-1.1808,-1.1831,-1.1851,-1.1668,-1.1671,-1.1674,-1.1805,0,-1.1102,-1.1227,-1.1225,-1.1342,-1.1402,-1.1376,-1.1438,-1.1474,-1.1486,-1.1538,-1.1552,-1.1612,-1.1572,-1.1592,-1.164,-1.1658,-1.1729,-1.1648,-1.1726,-1.1728,-1.1717,-1.1874,-1.1899,-1.2021,-1.1821,-1.1824,-1.1826,0,-1.1269,-1.1315,-1.1438,-1.1474,-1.1499,-1.1555,-1.1608,-1.1658,-1.1697,-1.1703,-1.1739,-1.1728,-1.1801,-1.1744,-1.1845,-1.179,-1.1821,-1.1834,-1.1839,-1.1848,-1.1785,-1.1889,-1.206,-1.2079,-1.1853,-1.1851,-1.1849,0,-1.1377,-1.147,-1.1555,-1.1578,-1.1622,-1.1662,-1.1683,-1.1718,-1.1753,-1.1799,-1.1822,-1.1876,-1.1907,-1.1949,-1.1952,-1.1911,-1.2054,-1.1998,-1.2062,-1.2062,-1.2096,-1.2094,-1.2276,-1.2112,-1.2112,-1.2112,-1.2111,0,-1.1521,-1.1598,-1.1604,-1.1657,-1.1741,-1.1738,-1.1822,-1.1838,-1.187,-1.1925,-1.1906,-1.1958,-1.1959,-1.2013,-1.2016,-1.2099,-1.2112,-1.2119,-1.212,-1.2123,-1.2122,-1.2145,-1.2137,-1.2116,-1.2115,-1.2114,-1.2114,0,-1.1658,-1.1665,-1.1757,-1.179,-1.18,-1.1861,-1.189,-1.194,-1.195,-1.202,-1.2037,-1.2052,-1.2114,-1.2121,-1.2194,-1.2195,-1.2296,-1.2287,-1.2284,-1.2283,-1.2347,-1.2341,-1.2551,-1.2579,-1.2396,-1.2397,-1.2399,0,-1.1751,-1.1809,-1.1848,-1.1884,-1.1906,-1.1963,-1.1998,-1.1996,-1.2034,-1.2081,-1.2126,-1.2186,-1.2234,-1.2334,-1.2352,-1.2407,-1.24,-1.2469,-1.2408,-1.2409,-1.2403,-1.24,-1.2406,-1.2482,-1.2484,-1.2486,-1.2487,0,-1.1916,-1.1916,-1.1967,-1.202,-1.2062,-1.2103,-1.2142,-1.2172,-1.2174,-1.2217,-1.228,-1.2317,-1.239,-1.245,-1.2504,-1.2525,-1.2507,-1.2505,-1.2523,-1.2528,-1.2525,-1.2529,-1.2318,-1.2502,-1.25,-1.2499,-1.2498,-1.2498,-1.2035,-1.2085,-1.212,-1.2178,-1.2206,-1.2242,-1.2291,-1.2305,-1.2357,-1.2416,-1.2411,-1.2481,-1.2517,-1.2587,-1.2612,-1.2666,-1.2643,-1.2669,-1.2676,-1.2683,-1.269,-1.2514,-1.2676,-1.2675,-1.2675,-1.2674,-1.2674,0,-1.22,-1.222,-1.2273,-1.2327,-1.2372,-1.2349,-1.239,-1.243,-1.2491,-1.2525,-1.2572,-1.2644,-1.2701,-1.2723,-1.2779,-1.2818,-1.2811,-1.2833,-1.2831,-1.2836,-1.2707,-1.2686,-1.2837,-1.2837,-1.2837,-1.2837,-1.2837,-1.2837,-1.2291,-1.2375,-1.2379,-1.2476,-1.2496,-1.2564,-1.2589,-1.2622,-1.265,-1.273,-1.2778,-1.279,-1.282,-1.2877,-1.2929,-1.2933,-1.2956,-1.2982,-1.2983,-1.2862,-1.2846,-1.283,-1.2811,-1.2986,-1.2986,-1.3108,-1.311,-1.311]},{"header":{"parameterUnit":"m.s-1","parameterCategory":1,"la1":30.2991,"la2":30.254,"lo1":-89.0895,"lo2":-89.0444,"dx":0.0017,"dy":0.0017,"nx":28,"ny":28,"refTime":"2022-11-15T15:00:00:Z","depth":0,"parameterNumber":3,"parameterNumberName":"V-component_of_WINDS"},"data":[0,0,0,0,0,0,0,0,0,0,0,0,0,0,0,0,0,0,0,0,0,0,0,0,0,0,0,0,0,0,0,0,0,0,0,0,0,0,0,0,0,0,0,0,0,0,0,0,0,0,0,0,0,0,0,0,0,0,-6.3959,-6.396,0,-6.4114,-6.4116,-6.4118,-6.4045,-6.4041,-6.4037,-6.4034,-6.4188,-6.4196,-6.4203,0,0,0,0,0,0,0,0,0,0,0,0,0,-6.3593,-6.36,-6.3959,-6.3961,-6.3963,-6.4114,-6.4116,-6.4118,-6.4046,-6.4041,-6.4036,-6.4032,-6.4186,-6.4195,-6.4204,0,0,0,0,0,0,0,0,0,0,0,0,0,-6.3751,-6.3603,-6.3958,-6.3945,-6.3945,-6.4114,-6.4116,-6.4119,-6.4047,-6.4041,-6.4035,-6.403,-6.4183,-6.4194,-6.4205,-6.4395,0,0,-6.4241,-6.4246,0,0,0,0,0,0,0,0,-6.3742,-6.3764,-6.3945,-6.3946,-6.3947,-6.4054,-6.4044,-6.4211,-6.4048,-6.4008,-6.4033,-6.4027,-6.4148,-6.4162,-6.4204,-6.4402,-6.4409,-6.4242,-6.4249,-6.4254,-6.4257,0,0,0,0,0,0,0,-6.3731,-6.3757,-6.402,-6.3947,-6.3949,-6.3929,-6.3945,-6.4075,-6.4109,-6.4011,-6.4006,-6.4026,-6.4147,-6.4193,-6.4207,-6.4411,-6.4242,-6.4252,-6.4259,-6.4264,-6.477,-6.4776,0,0,0,0,0,0,-6.3721,-6.3748,-6.4015,-6.4025,-6.3828,-6.394,-6.3958,-6.4026,-6.4107,-6.4114,-6.4031,-6.4022,-6.4176,-6.4194,-6.4212,-6.4439,-6.4254,-6.4265,-6.4272,-6.4763,-6.4771,-6.4778,0,0,0,0,0,0,-6.3714,-6.3746,-6.4009,-6.3885,-6.3917,-6.3953,-6.4029,-6.4032,-6.4077,-6.4122,-6.4127,-6.4072,-6.4172,-6.4196,-6.435,-6.4443,-6.427,-6.4281,-6.4756,-6.4766,-6.4775,-6.4893,0,0,0,0,0,0,-6.3703,-6.3743,-6.3817,-6.3888,-6.3924,-6.4146,-6.4035,-6.4039,-6.4098,-6.4088,-6.4162,-6.4168,-6.4169,-6.4333,-6.4361,-6.4456,-6.429,-6.4748,-6.476,-6.4772,-6.4881,-6.4906,-6.4927,0,0,0,0,0,-6.3691,-6.3844,-6.3821,-6.3854,-6.4018,-6.4151,-6.4172,-6.4172,-6.4106,-6.418,-6.4208,-6.4166,-6.4428,-6.4349,-6.4381,-6.448,-6.4742,-6.4757,-6.4771,-6.4871,-6.4901,-6.4926,0,0,0,0,0,0,-6.3782,-6.3853,-6.3829,-6.4009,-6.4075,-6.4139,-6.4232,-6.4203,-6.4288,-6.4275,-6.4269,-6.4286,-6.4445,-6.4478,-6.4389,-6.4667,-6.4575,-6.4596,-6.464,-6.4669,-6.4691,-6.468,-6.4299,0,0,0,0,0,-6.3823,-6.3928,-6.3983,-6.4137,-6.4172,-6.4196,-6.4255,-6.4248,-6.4315,-6.4342,-6.4382,-6.4448,-6.4544,-6.4608,-6.47,-6.4885,-6.4899,-6.4969,-6.4992,-6.501,-6.5029,-6.5128,-6.5159,-6.4826,-6.4826,-6.4826,0,0,-6.391,-6.3961,-6.4027,-6.4157,-6.4207,-6.4314,-6.422,-6.4337,-6.4416,-6.436,-6.4508,-6.4539,-6.4611,-6.4782,-6.4859,-6.4814,-6.5124,-6.5029,-6.5043,-6.5052,-6.5146,-6.5178,-6.5206,-6.4836,-6.4834,-6.4832,0,0,-6.4121,-6.4171,-6.4305,-6.4357,-6.4435,-6.445,-6.4482,-6.455,-6.4569,-6.4718,-6.4678,-6.477,-6.4937,-6.499,-6.5039,-6.5269,-6.5233,-6.5299,-6.5418,-6.5515,-6.5541,-6.5565,-6.5646,-6.5675,-6.5317,-6.5318,-6.5318,0,-6.4218,-6.4379,-6.4376,-6.4497,-6.4554,-6.451,-6.4644,-6.4694,-6.4797,-6.4837,-6.4785,-6.4994,-6.5039,-6.522,-6.5277,-6.5318,-6.5353,-6.5291,-6.5538,-6.5561,-6.5583,-6.566,-6.5691,-6.5325,-6.5324,-6.5324,-6.5323,0,-6.4494,-6.4606,-6.4704,-6.4806,-6.4874,-6.5001,-6.5016,-6.5085,-6.5072,-6.5092,-6.5243,-6.5296,-6.5397,-6.544,-6.5428,-6.5619,-6.5589,-6.5538,-6.5445,-6.5622,-6.5695,-6.5725,-6.5336,-6.5333,-6.5331,-6.5329,0,0,-6.4769,-6.4867,-6.4903,-6.4948,-6.503,-6.5116,-6.5239,-6.5339,-6.5398,-6.547,-6.5572,-6.5715,-6.5668,-6.5723,-6.5717,-6.5802,-6.598,-6.574,-6.5742,-6.5782,-6.6192,-6.623,-6.6265,-6.5956,-6.5962,-6.5966,-6.6186,0,-6.4986,-6.5204,-6.5205,-6.5405,-6.5508,-6.5466,-6.5573,-6.5634,-6.5656,-6.5744,-6.5766,-6.5868,-6.5799,-6.5832,-6.5914,-6.5941,-6.6062,-6.5925,-6.605,-6.6054,-6.6034,-6.6303,-6.6344,-6.6549,-6.6215,-6.6219,-6.6223,0,-6.5269,-6.5352,-6.5563,-6.5629,-6.5672,-6.5769,-6.586,-6.5945,-6.6012,-6.6022,-6.6084,-6.6064,-6.6187,-6.6091,-6.626,-6.6167,-6.6217,-6.6238,-6.6246,-6.6258,-6.615,-6.6322,-6.6614,-6.6645,-6.6268,-6.6264,-6.6261,0,-6.5448,-6.5611,-6.5759,-6.5799,-6.5879,-6.5948,-6.5984,-6.6046,-6.6105,-6.6184,-6.6223,-6.6314,-6.6365,-6.6435,-6.644,-6.6369,-6.661,-6.6514,-6.662,-6.662,-6.6673,-6.667,-6.6978,-6.6706,-6.6706,-6.6705,-6.6705,0,-6.569,-6.5821,-6.584,-6.5931,-6.6075,-6.6073,-6.6216,-6.6245,-6.63,-6.6394,-6.6363,-6.6452,-6.6453,-6.6543,-6.6547,-6.6685,-6.6708,-6.6718,-6.6718,-6.6721,-6.672,-6.6755,-6.674,-6.6713,-6.6712,-6.671,-6.6709,0,-6.5914,-6.5933,-6.609,-6.6154,-6.6172,-6.6276,-6.6329,-6.6415,-6.6433,-6.6552,-6.658,-6.6608,-6.6712,-6.6724,-6.6845,-6.6847,-6.7015,-6.6999,-6.6993,-6.699,-6.7096,-6.7086,-6.7437,-6.7482,-6.7181,-6.7184,-6.7186,0,-6.6068,-6.6168,-6.6242,-6.6304,-6.6344,-6.6444,-6.6505,-6.6506,-6.6571,-6.6654,-6.6729,-6.683,-6.6911,-6.7079,-6.7109,-6.7201,-6.7187,-6.7304,-6.72,-6.7201,-6.7188,-6.7182,-6.7192,-6.7324,-6.7327,-6.733,-6.7332,0,-6.6339,-6.6343,-6.6433,-6.6527,-6.6601,-6.6674,-6.6742,-6.6794,-6.6803,-6.6877,-6.6984,-6.7047,-6.7171,-6.7271,-6.7361,-6.7396,-6.7366,-6.7364,-6.7393,-6.7398,-6.739,-6.7396,-6.7047,-6.7356,-6.7354,-6.7352,-6.7351,-6.735,-6.6533,-6.6619,-6.6685,-6.6786,-6.6838,-6.6902,-6.6985,-6.7014,-6.7104,-6.7206,-6.72,-6.7318,-6.738,-6.7498,-6.754,-6.763,-6.7591,-6.7634,-6.7645,-6.7655,-6.7666,-6.7376,-6.7647,-6.7646,-6.7645,-6.7645,-6.7644,0,-6.6801,-6.6841,-6.6935,-6.7032,-6.7111,-6.7077,-6.715,-6.7218,-6.7323,-6.7384,-6.7465,-6.7587,-6.7684,-6.7721,-6.7815,-6.788,-6.7869,-6.7905,-6.79,-6.7909,-6.7696,-6.7661,-6.7913,-6.7913,-6.7913,-6.7913,-6.7913,-6.7913,-6.6951,-6.7095,-6.7106,-6.7275,-6.7313,-6.743,-6.7475,-6.7533,-6.7582,-6.7721,-6.7802,-6.7826,-6.7877,-6.7975,-6.8061,-6.8069,-6.8105,-6.8148,-6.815,-6.7951,-6.7924,-6.7898,-6.7865,-6.8156,-6.8156,-6.8356,-6.8357,-6.8359]}]]